When you browse on this site, cookies collect data to enhance your experience and personalize the content and advertising you see.
Visit our Privacy Policy to learn more. By continuing to use the site, you agree to this use of cookies and data.
  • In Portugal
  • List of Countries
  • For 7 days
  • Water Temperature
  • Weather Map
  • Weather Widgets
  • user-avatar
    Login

    Hourly Weather Llucmajor

    Today, 20 August, Tuesday

    Time Temperature Precipitation Wind Pressure Humidity
    00:00 +25°C° 0 mm 2 mps 747 mmHg 90%
    01:00 +25°C° 0 mm 2 mps 747 mmHg 90%
    02:00 +24°C° 0 mm 3 mps 747 mmHg 89%
    03:00 +24°C° 0 mm 3 mps 747 mmHg 89%
    04:00 +25°C° 0 mm 3 mps 747 mmHg 88%
    05:00 +25°C° 0 mm 4 mps 747 mmHg 87%
    06:00 +25°C° 0 mm 4 mps 747 mmHg 87%
    07:00 +27°C° 0 mm 4 mps 748 mmHg 77%
    08:00 +28°C° 0 mm 4 mps 748 mmHg 68%
    09:00 +30°C° 0 mm 4 mps 749 mmHg 58%
    10:00 +30°C° 0 mm 5 mps 749 mmHg 59%
    11:00 +30°C° 0 mm 6 mps 749 mmHg 60%
    12:00 +30°C° 0 mm 6 mps 750 mmHg 61%
    13:00 +29°C° 0 mm 7 mps 750 mmHg 62%
    14:00 +29°C° 0 mm 8 mps 750 mmHg 64%
    15:00 +28°C° 0 mm 8 mps 750 mmHg 65%
    16:00 +27°C° 0 mm 8 mps 750 mmHg 68%
    17:00 +26°C° 0 mm 8 mps 750 mmHg 71%
    18:00 +24°C° 0 mm 8 mps 750 mmHg 74%
    19:00 +23°C° 0 mm 8 mps 750 mmHg 76%
    20:00 +23°C° 0 mm 8 mps 751 mmHg 78%
    21:00 +22°C° 0 mm 8 mps 751 mmHg 80%
    22:00 +22°C° 0 mm 7 mps 751 mmHg 79%
    23:00 +22°C° 0 mm 7 mps 751 mmHg 79%

    Tomorrow, 21 August, Wednesday

    Time Temperature Precipitation Wind Pressure Humidity
    00:00 +22°C° 0 mm 6 mps 751 mmHg 78%
    01:00 +22°C° 0 mm 6 mps 751 mmHg 77%
    02:00 +22°C° 0 mm 6 mps 751 mmHg 76%
    03:00 +22°C° 0 mm 6 mps 751 mmHg 75%
    04:00 +22°C° 0 mm 6 mps 751 mmHg 75%
    05:00 +22°C° 0 mm 5 mps 751 mmHg 74%
    06:00 +22°C° 0 mm 5 mps 751 mmHg 73%
    07:00 +25°C° 0 mm 5 mps 751 mmHg 64%
    08:00 +26°C° 0 mm 5 mps 751 mmHg 56%
    09:00 +28°C° 0 mm 5 mps 752 mmHg 48%
    10:00 +28°C° 0 mm 5 mps 751 mmHg 47%
    11:00 +29°C° 0 mm 5 mps 751 mmHg 46%
    12:00 +29°C° 0 mm 6 mps 751 mmHg 44%
    13:00 +29°C° 0 mm 5 mps 751 mmHg 45%
    14:00 +29°C° 0 mm 5 mps 750 mmHg 46%
    15:00 +29°C° 0 mm 4 mps 750 mmHg 47%
    16:00 +28°C° 0 mm 4 mps 750 mmHg 50%
    17:00 +27°C° 0 mm 4 mps 750 mmHg 54%
    18:00 +26°C° 0 mm 4 mps 750 mmHg 58%
    19:00 +25°C° 0 mm 3 mps 750 mmHg 63%
    20:00 +24°C° 0 mm 3 mps 750 mmHg 69%
    21:00 +22°C° 0 mm 3 mps 750 mmHg 74%
    22:00 +21°C° 0 mm 3 mps 750 mmHg 75%
    23:00 +21°C° 0 mm 3 mps 750 mmHg 77%

    Day after tomorrow, 22 August, Thursday

    Time Temperature Precipitation Wind Pressure Humidity
    00:00 +21°C° 0 mm 2 mps 750 mmHg 78%
    01:00 +21°C° 0 mm 2 mps 750 mmHg 78%
    02:00 +21°C° 0 mm 2 mps 750 mmHg 78%
    03:00 +21°C° 0 mm 2 mps 749 mmHg 79%
    04:00 +21°C° 0 mm 3 mps 750 mmHg 77%
    05:00 +21°C° 0 mm 3 mps 750 mmHg 76%
    06:00 +22°C° 0 mm 3 mps 750 mmHg 74%
    07:00 +25°C° 0 mm 3 mps 751 mmHg 63%
    08:00 +27°C° 0 mm 4 mps 751 mmHg 52%
    09:00 +29°C° 0 mm 4 mps 751 mmHg 41%
    10:00 +30°C° 0 mm 4 mps 751 mmHg 39%
    11:00 +30°C° 0 mm 5 mps 751 mmHg 38%
    12:00 +32°C° 0 mm 5 mps 751 mmHg 37%
    13:00 +32°C° 0 mm 5 mps 751 mmHg 36%
    14:00 +30°C° 0 mm 5 mps 751 mmHg 36%
    15:00 +30°C° 0 mm 5 mps 750 mmHg 35%
    16:00 +29°C° 0 mm 4 mps 750 mmHg 38%
    17:00 +28°C° 0 mm 4 mps 750 mmHg 41%
    18:00 +27°C° 0 mm 4 mps 750 mmHg 44%
    19:00 +26°C° 0 mm 3 mps 750 mmHg 48%
    20:00 +24°C° 0 mm 3 mps 750 mmHg 51%
    21:00 +23°C° 0 mm 2 mps 751 mmHg 54%
    22:00 +23°C° 0 mm 2 mps 750 mmHg 55%
    23:00 +21°C° 0 mm 2 mps 750 mmHg 55%

    23 August, Friday

    Time Temperature Precipitation Wind Pressure Humidity
    00:00 +21°C° 0 mm 2 mps 750 mmHg 56%
    01:00 +21°C° 0 mm 2 mps 750 mmHg 57%
    02:00 +21°C° 0 mm 2 mps 750 mmHg 57%
    03:00 +21°C° 0 mm 2 mps 749 mmHg 58%
    04:00 +21°C° 0 mm 2 mps 750 mmHg 58%
    05:00 +21°C° 0 mm 2 mps 750 mmHg 58%
    06:00 +23°C° 0 mm 2 mps 750 mmHg 58%
    07:00 +25°C° 0 mm 2 mps 750 mmHg 53%
    08:00 +27°C° 0 mm 2 mps 750 mmHg 48%
    09:00 +30°C° 0 mm 2 mps 751 mmHg 44%
    10:00 +30°C° 0 mm 3 mps 750 mmHg 43%
    11:00 +32°C° 0 mm 4 mps 750 mmHg 41%
    12:00 +33°C° 0 mm 4 mps 750 mmHg 40%
    13:00 +32°C° 0 mm 4 mps 750 mmHg 41%
    14:00 +32°C° 0 mm 4 mps 750 mmHg 43%
    15:00 +32°C° 0 mm 4 mps 749 mmHg 44%
    16:00 +30°C° 0 mm 3 mps 749 mmHg 49%
    17:00 +28°C° 0 mm 3 mps 749 mmHg 54%
    18:00 +27°C° 0 mm 2 mps 749 mmHg 59%
    19:00 +26°C° 0 mm 2 mps 749 mmHg 66%
    20:00 +25°C° 0 mm 2 mps 749 mmHg 73%
    21:00 +23°C° 0 mm 2 mps 749 mmHg 80%
    22:00 +23°C° 0 mm 2 mps 749 mmHg 80%
    23:00 +23°C° 0 mm 2 mps 749 mmHg 81%

    24 August, Saturday

    Time Temperature Precipitation Wind Pressure Humidity
    00:00 +21°C° 0 mm 2 mps 749 mmHg 81%
    01:00 +21°C° 0 mm 2 mps 749 mmHg 81%
    02:00 +21°C° 0 mm 2 mps 749 mmHg 81%
    03:00 +22°C° 0 mm 1 mps 748 mmHg 81%
    04:00 +21°C° 0 mm 2 mps 748 mmHg 79%
    05:00 +21°C° 0 mm 2 mps 749 mmHg 78%
    06:00 +21°C° 0 mm 2 mps 749 mmHg 76%
    07:00 +24°C° 0 mm 2 mps 749 mmHg 65%
    08:00 +27°C° 0 mm 2 mps 750 mmHg 54%
    09:00 +29°C° 0 mm 2 mps 750 mmHg 43%
    10:00 +29°C° 0 mm 3 mps 750 mmHg 44%
    11:00 +30°C° 0 mm 3 mps 750 mmHg 45%
    12:00 +32°C° 0 mm 4 mps 750 mmHg 46%
    13:00 +30°C° 0 mm 3 mps 750 mmHg 47%
    14:00 +30°C° 0 mm 3 mps 749 mmHg 48%
    15:00 +30°C° 0 mm 3 mps 749 mmHg 49%
    16:00 +29°C° 0 mm 3 mps 749 mmHg 53%
    17:00 +28°C° 0 mm 2 mps 749 mmHg 57%
    18:00 +27°C° 0 mm 2 mps 748 mmHg 61%
    19:00 +26°C° 0 mm 2 mps 749 mmHg 67%
    20:00 +25°C° 0 mm 1 mps 749 mmHg 73%
    21:00 +23°C° 0 mm 1 mps 749 mmHg 78%
    22:00 +23°C° 0 mm 1 mps 749 mmHg 79%
    23:00 +23°C° 0 mm 1 mps 749 mmHg 80%

    25 August, Sunday

    Time Temperature Precipitation Wind Pressure Humidity
    00:00 +23°C° 0 mm 1 mps 749 mmHg 81%
    01:00 +23°C° 0 mm 1 mps 749 mmHg 81%
    02:00 +22°C° 0 mm 1 mps 748 mmHg 81%
    03:00 +22°C° 0 mm 1 mps 748 mmHg 81%
    04:00 +23°C° 0 mm 1 mps 748 mmHg 79%
    05:00 +23°C° 0 mm 1 mps 748 mmHg 78%
    06:00 +23°C° 0 mm 2 mps 748 mmHg 76%
    07:00 +25°C° 0 mm 2 mps 748 mmHg 69%
    08:00 +27°C° 0 mm 2 mps 749 mmHg 61%
    09:00 +29°C° 0 mm 2 mps 749 mmHg 53%
    10:00 +30°C° 0 mm 3 mps 749 mmHg 52%
    11:00 +30°C° 0 mm 3 mps 749 mmHg 51%
    12:00 +32°C° 0 mm 4 mps 749 mmHg 50%
    13:00 +32°C° 0 mm 4 mps 749 mmHg 51%
    14:00 +30°C° 0 mm 4 mps 748 mmHg 52%
    15:00 +30°C° 0 mm 4 mps 748 mmHg 53%
    16:00 +29°C° 0 mm 3 mps 748 mmHg 57%
    17:00 +28°C° 0 mm 3 mps 748 mmHg 62%
    18:00 +27°C° 0 mm 2 mps 748 mmHg 66%
    19:00 +26°C° 0 mm 2 mps 748 mmHg 72%
    20:00 +25°C° 0 mm 1 mps 748 mmHg 77%
    21:00 +24°C° 0 mm 1 mps 749 mmHg 83%
    22:00 +23°C° 0 mm 1 mps 749 mmHg 84%
    23:00 +23°C° 0 mm 1 mps 748 mmHg 84%
    Show more